Simultaneous Nadir Overpasses (SNOs) Predictions

Prediction of SNOs between FY3D and NOAA-19 Satellite Orbit:

Table of predicted SNOs for the next 14.0 days since TLE Epoch: 10/21/2023
Index Date (FY3D) Time (FY3D) Lat,Lon (FY3D) SZA (FY3D ) Date (NOAA-19) Time (NOAA-19) Lat,Lon (NOAA-19) SZA (NOAA-19 ) Distance(km) Time Diff (sec)
1 10/24/2023 20:07:29 -76.05, 53.00 92.15 10/24/2023 20:06:19 -76.07, 51.07 92.12 51.73 70
2 10/24/2023 20:58:21 76.32,-140.67 88.14 10/24/2023 20:57:15 76.34,-140.66 88.16 1.76 66
3 10/24/2023 21:49:07 -76.35, 26.53 91.82 10/24/2023 21:48:12 -76.32, 26.53 91.85 3.94 55
4 10/24/2023 22:39:53 76.35,-166.17 88.20 10/24/2023 22:39:14 76.33,-166.20 88.18 3.35 39
5 10/24/2023 23:30:38 -76.34, 1.19 91.80 10/24/2023 23:30:10 -76.35, 1.15 91.80 1.37 28
6 10/25/2023 00:21:24 76.34, 168.50 88.21 10/25/2023 00:21:12 76.36, 168.43 88.23 2.50 12
7 10/25/2023 01:12:10 -76.37, -24.31 91.75 10/25/2023 01:12:08 -76.38, -24.22 91.74 2.42 2
8 10/25/2023 02:02:56 76.38, 143.00 88.27 10/25/2023 02:03:10 76.39, 143.06 88.29 2.21 14
9 10/25/2023 02:53:41 -76.36, -49.64 91.73 10/25/2023 02:54:07 -76.37, -49.76 91.73 3.16 26
10 10/25/2023 03:44:28 76.41, 117.50 88.33 10/25/2023 03:45:09 76.38, 117.52 88.30 3.48 41
11 10/25/2023 04:35:13 -76.39, -75.14 91.68 10/25/2023 04:36:05 -76.40, -75.13 91.67 0.56 52
12 10/25/2023 05:25:59 76.40, 92.16 88.34 10/25/2023 05:27:07 76.41, 92.15 88.35 1.45 68
13 10/25/2023 06:16:49 -76.60,-101.32 91.43 10/25/2023 06:18:00 -76.56, -99.98 91.49 34.92 71



Historial Predications of SNOs between FY3D and NOAA-19
